{"data":{"norad_id":69121,"epoch":"2026-09-20T03:23:46.815648Z","epoch_age_seconds":54098,"freshness":"FRESH","line1":"1 69121U 26108T   26263.14151407  .00000115  00000+0  15922-3 0  9996","line2":"2 69121  89.0195  12.4955 0002132  99.2971 260.8422 13.51023140 17297","mean_motion":13.5102314,"eccentricity":0.0002132,"inclination_deg":89.0195,"raan_deg":12.4955,"arg_perigee_deg":99.2971,"mean_anomaly_deg":260.8422,"bstar":0.00015922,"rev_number":1729,"period_min":106.58588719657,"perigee_km":1066.9089323231,"apogee_km":1070.0841768708,"semimajor_km":7446.633554597,"source":"CELESTRAK","updated_at":"2026-09-20T09:00:24.683714Z"}}